When you browse on this site, cookies collect data to enhance your experience and personalize the content and advertising you see.
Visit our Privacy Policy to learn more. By continuing to use the site, you agree to this use of cookies and data.
  • In Spain
  • List of Countries
  • For 7 days
  • Water Temperature
  • Weather Map
  • Weather Widgets
  • user-avatar
    Login

    Hourly Weather Verbovo

    Today, 7 June, Sunday

    Time Temperature Precipitation Wind Pressure Humidity
    00:00 +15°C° 0 mm 1 mps 740 mmHg 92%
    01:00 +15°C° 0 mm 1 mps 740 mmHg 92%
    02:00 +14°C° 0 mm 1 mps 741 mmHg 92%
    03:00 +15°C° 0 mm 1 mps 741 mmHg 92%
    04:00 +15°C° 0 mm 1 mps 741 mmHg 92%
    05:00 +14°C° 0 mm 0 mps 741 mmHg 92%
    06:00 +18°C° 0 mm 1 mps 742 mmHg 88%
    07:00 +19°C° 0 mm 1 mps 742 mmHg 84%
    08:00 +21°C° 0 mm 1 mps 742 mmHg 81%
    09:00 +22°C° 0 mm 1 mps 743 mmHg 76%
    10:00 +23°C° 0 mm 1 mps 743 mmHg 71%
    11:00 +24°C° 0 mm 2 mps 743 mmHg 66%
    12:00 +25°C° 0 mm 2 mps 743 mmHg 64%
    13:00 +25°C° 0 mm 2 mps 743 mmHg 62%
    14:00 +26°C° 0 mm 2 mps 743 mmHg 60%
    15:00 +26°C° 0 mm 2 mps 743 mmHg 64%
    16:00 +25°C° 0 mm 2 mps 742 mmHg 68%
    17:00 +25°C° 0 mm 2 mps 742 mmHg 72%
    18:00 +24°C° 0 mm 2 mps 742 mmHg 76%
    19:00 +21°C° 0 mm 2 mps 742 mmHg 80%
    20:00 +20°C° 0 mm 2 mps 742 mmHg 84%
    21:00 +19°C° 0 mm 2 mps 742 mmHg 86%
    22:00 +19°C° 0 mm 2 mps 742 mmHg 89%
    23:00 +18°C° 0 mm 2 mps 742 mmHg 91%

    Tomorrow, 8 June, Monday

    Time Temperature Precipitation Wind Pressure Humidity
    00:00 +18°C° 0 mm 2 mps 742 mmHg 92%
    01:00 +17°C° 0 mm 2 mps 742 mmHg 94%
    02:00 +17°C° 0 mm 2 mps 742 mmHg 95%
    03:00 +17°C° 0 mm 2 mps 742 mmHg 95%
    04:00 +18°C° 0 mm 2 mps 742 mmHg 95%
    05:00 +18°C° 0 mm 2 mps 742 mmHg 94%
    06:00 +19°C° 0 mm 3 mps 742 mmHg 91%
    07:00 +21°C° 0 mm 3 mps 742 mmHg 87%
    08:00 +22°C° 0 mm 3 mps 742 mmHg 84%
    09:00 +23°C° 0 mm 4 mps 742 mmHg 80%
    10:00 +25°C° 0 mm 4 mps 742 mmHg 75%
    11:00 +26°C° 0 mm 4 mps 743 mmHg 71%
    12:00 +27°C° 0 mm 4 mps 742 mmHg 69%
    13:00 +27°C° 0 mm 4 mps 742 mmHg 68%
    14:00 +27°C° 0 mm 4 mps 742 mmHg 66%
    15:00 +27°C° 0 mm 3 mps 742 mmHg 68%
    16:00 +27°C° 0 mm 3 mps 742 mmHg 71%
    17:00 +27°C° 0 mm 2 mps 741 mmHg 73%
    18:00 +25°C° 0 mm 2 mps 741 mmHg 77%
    19:00 +23°C° 0 mm 2 mps 741 mmHg 81%
    20:00 +21°C° 0 mm 2 mps 741 mmHg 85%
    21:00 +20°C° 0 mm 2 mps 742 mmHg 87%
    22:00 +19°C° 0 mm 2 mps 742 mmHg 89%
    23:00 +19°C° 0 mm 2 mps 742 mmHg 91%

    Day after tomorrow, 9 June, Tuesday

    Time Temperature Precipitation Wind Pressure Humidity
    00:00 +19°C° 0.1 mm 2 mps 742 mmHg 92%
    01:00 +18°C° 0.1 mm 2 mps 742 mmHg 93%
    02:00 +18°C° 0.1 mm 2 mps 742 mmHg 94%
    03:00 +18°C° 0 mm 2 mps 742 mmHg 94%
    04:00 +19°C° 0 mm 2 mps 742 mmHg 94%
    05:00 +19°C° 0 mm 2 mps 742 mmHg 94%
    06:00 +20°C° 0 mm 2 mps 743 mmHg 90%
    07:00 +23°C° 0 mm 2 mps 743 mmHg 86%
    08:00 +24°C° 0 mm 3 mps 743 mmHg 82%
    09:00 +25°C° 0 mm 3 mps 743 mmHg 78%
    10:00 +26°C° 0 mm 3 mps 743 mmHg 73%
    11:00 +27°C° 0 mm 3 mps 743 mmHg 69%
    12:00 +27°C° 0.3 mm 3 mps 743 mmHg 68%
    13:00 +28°C° 0.3 mm 3 mps 743 mmHg 68%
    14:00 +28°C° 0.3 mm 3 mps 742 mmHg 68%
    15:00 +28°C° 0.2 mm 2 mps 742 mmHg 69%
    16:00 +28°C° 0.2 mm 2 mps 742 mmHg 70%
    17:00 +28°C° 0.2 mm 1 mps 742 mmHg 72%
    18:00 +26°C° 0.1 mm 1 mps 742 mmHg 76%
    19:00 +25°C° 0.1 mm 2 mps 742 mmHg 81%
    20:00 +23°C° 0.1 mm 2 mps 742 mmHg 85%
    21:00 +22°C° 0 mm 1 mps 742 mmHg 87%
    22:00 +21°C° 0 mm 1 mps 743 mmHg 89%
    23:00 +21°C° 0 mm 1 mps 743 mmHg 91%

    10 June, Wednesday

    Time Temperature Precipitation Wind Pressure Humidity
    00:00 +20°C° 0 mm 1 mps 743 mmHg 91%
    01:00 +20°C° 0 mm 1 mps 743 mmHg 92%
    02:00 +18°C° 0 mm 2 mps 743 mmHg 93%
    03:00 +19°C° 0 mm 2 mps 743 mmHg 93%
    04:00 +19°C° 0 mm 2 mps 743 mmHg 93%
    05:00 +19°C° 0 mm 2 mps 743 mmHg 94%
    06:00 +21°C° 0.1 mm 2 mps 743 mmHg 90%
    07:00 +23°C° 0.1 mm 2 mps 743 mmHg 87%
    08:00 +25°C° 0.1 mm 2 mps 743 mmHg 84%
    09:00 +26°C° 1.1 mm 2 mps 743 mmHg 80%
    10:00 +27°C° 1.1 mm 2 mps 743 mmHg 75%
    11:00 +28°C° 1.1 mm 2 mps 743 mmHg 70%
    12:00 +28°C° 0.1 mm 2 mps 742 mmHg 69%
    13:00 +28°C° 0.1 mm 2 mps 742 mmHg 68%
    14:00 +28°C° 0.1 mm 2 mps 742 mmHg 66%
    15:00 +28°C° 0.1 mm 2 mps 742 mmHg 70%
    16:00 +28°C° 0.1 mm 2 mps 742 mmHg 73%
    17:00 +28°C° 0.1 mm 2 mps 742 mmHg 76%
    18:00 +26°C° 0.3 mm 2 mps 742 mmHg 80%
    19:00 +25°C° 0.3 mm 2 mps 742 mmHg 84%
    20:00 +23°C° 0.3 mm 2 mps 742 mmHg 88%
    21:00 +21°C° 0 mm 2 mps 742 mmHg 90%
    22:00 +21°C° 0 mm 2 mps 742 mmHg 92%
    23:00 +20°C° 0 mm 3 mps 742 mmHg 94%

    11 June, Thursday

    Time Temperature Precipitation Wind Pressure Humidity
    00:00 +20°C° 0 mm 2 mps 742 mmHg 95%
    01:00 +19°C° 0 mm 2 mps 742 mmHg 95%
    02:00 +19°C° 0 mm 2 mps 742 mmHg 96%
    03:00 +19°C° 0 mm 2 mps 742 mmHg 96%
    04:00 +19°C° 0 mm 2 mps 742 mmHg 97%
    05:00 +19°C° 0 mm 2 mps 742 mmHg 97%
    06:00 +21°C° 0 mm 3 mps 742 mmHg 94%
    07:00 +22°C° 0 mm 3 mps 742 mmHg 91%
    08:00 +24°C° 0 mm 3 mps 742 mmHg 88%
    09:00 +25°C° 0.3 mm 3 mps 742 mmHg 84%
    10:00 +26°C° 0.3 mm 3 mps 742 mmHg 79%
    11:00 +27°C° 0.3 mm 4 mps 742 mmHg 75%
    12:00 +28°C° 0.3 mm 4 mps 742 mmHg 73%
    13:00 +28°C° 0.3 mm 3 mps 742 mmHg 71%
    14:00 +28°C° 0.3 mm 3 mps 742 mmHg 70%
    15:00 +28°C° 0 mm 3 mps 741 mmHg 71%
    16:00 +28°C° 0 mm 3 mps 741 mmHg 73%
    17:00 +28°C° 0 mm 2 mps 741 mmHg 75%
    18:00 +26°C° 0 mm 2 mps 741 mmHg 79%
    19:00 +25°C° 0 mm 3 mps 741 mmHg 83%
    20:00 +22°C° 0 mm 3 mps 741 mmHg 87%
    21:00 +21°C° 0 mm 3 mps 741 mmHg 89%
    22:00 +21°C° 0 mm 3 mps 741 mmHg 91%
    23:00 +20°C° 0 mm 3 mps 741 mmHg 93%

    12 June, Friday

    Time Temperature Precipitation Wind Pressure Humidity
    00:00 +19°C° 0 mm 2 mps 741 mmHg 94%
    01:00 +19°C° 0 mm 2 mps 741 mmHg 95%
    02:00 +19°C° 0 mm 2 mps 741 mmHg 96%
    03:00 +19°C° 0 mm 2 mps 741 mmHg 95%
    04:00 +19°C° 0 mm 2 mps 741 mmHg 95%
    05:00 +19°C° 0 mm 3 mps 741 mmHg 95%
    06:00 +21°C° 0 mm 3 mps 741 mmHg 91%
    07:00 +22°C° 0 mm 3 mps 741 mmHg 88%
    08:00 +24°C° 0 mm 3 mps 741 mmHg 84%
    09:00 +26°C° 0 mm 3 mps 741 mmHg 81%
    10:00 +27°C° 0 mm 3 mps 741 mmHg 77%
    11:00 +28°C° 0 mm 3 mps 741 mmHg 74%
    12:00 +28°C° 0 mm 3 mps 741 mmHg 71%
    13:00 +29°C° 0 mm 3 mps 741 mmHg 69%
    14:00 +29°C° 0 mm 3 mps 740 mmHg 66%
    15:00 +29°C° 0.1 mm 2 mps 740 mmHg 69%
    16:00 +29°C° 0.1 mm 2 mps 740 mmHg 72%
    17:00 +29°C° 0.1 mm 2 mps 740 mmHg 74%
    18:00 +27°C° 0.1 mm 2 mps 740 mmHg 78%
    19:00 +26°C° 0.1 mm 2 mps 740 mmHg 82%
    20:00 +24°C° 0.1 mm 2 mps 740 mmHg 86%
    21:00 +22°C° 0 mm 3 mps 740 mmHg 88%
    22:00 +21°C° 0 mm 3 mps 740 mmHg 90%
    23:00 +20°C° 0 mm 3 mps 740 mmHg 92%
    Show more